Regional Weather Roundup
Issued by NWS Upton, NY

Current Version | Previous Version | Graphics & Text | Print | Product List | Glossary Off
Versions: 1 2 3 4 5 6 7 8 9 10 11 12 13 14 15 16 17 18 19 20 21 22 23 24 25 26 27 28 29 30 31 32 33 34 35 36 37 38 39 40 41 42 43 44 45 46 47 48 49 50

000
ASUS41 KOKX 300905
RWROKX

REGIONAL WEATHER ROUNDUP
NATIONAL WEATHER SERVICE NEW YORK NY
400 AM EST FRI JAN 30 2015

NOTE: "FAIR" INDICATES FEW OR NO CLOUDS BELOW 12,000 FEET WITH NO
SIGNIFICANT WEATHER AND/OR OBSTRUCTIONS TO VISIBILITY.

NYZ071-072-176-178-NJZ106-104-301000-
NEW YORK CITY METRO AREA


CITY           SKY/WX    TMP DP  RH WIND       PRES   REMARKS
CENTRAL PARK   CLOUDY    37  27  67 CALM      29.88F
LAGUARDIA APRT CLOUDY    34  30  85 S5        29.87F WCI  30
KENNEDY INTL   FLURRIES  37  29  72 S10       29.88F WCI  30
NEWARK/LIBERTY FLURRIES  32  30  92 CALM      29.87F
BRNX BOT. GARD   N/A     32  32 100 S2        29.88F
TETERBORO      FLURRIES  31  28  89 CALM      29.86F
$$

NYZ177-179-078>081-301000-
LONG ISLAND NEW YORK

CITY           SKY/WX    TMP DP  RH WIND       PRES   REMARKS
FARMINGDALE    CLOUDY    33  32  96 VRB3      29.88F
ISLIP          CLOUDY    33  30  88 CALM      29.86F
SHIRLEY        CLOUDY    33  31  92 CALM      29.89F
WESTHAMPTON    CLOUDY    34  29  82 CALM      29.89F
MONTAUK POINT    N/A     37  33  85 W3        29.90F
$$

NYZ052-065-067-301000-
HUDSON VALLEY

CITY           SKY/WX    TMP DP  RH WIND       PRES   REMARKS
WHITE PLAINS   LGT SNOW  31  29  92 CALM      29.85F FOG
NEWBURGH       CLOUDY    27  27 100 CALM      29.86F FOG
MONTGOMERY     CLOUDY    26  24  92 CALM      29.84F FOG
POUGHKEEPSIE   LGT SNOW  30  27  88 CALM      29.87F FOG
ALBANY         LGT SNOW  28  24  85 S8        29.85S FOG     WCI  20
$$

NJZ001-105-106-008-010-013-015-019>022-104-301000-
NEW JERSEY

CITY           SKY/WX    TMP DP  RH WIND       PRES   REMARKS
NEWARK/LIBERTY FLURRIES  32  30  92 CALM      29.87F
TETERBORO      FLURRIES  31  28  89 CALM      29.86F
CALDWELL       CLOUDY    29  27  92 CALM      29.87F
MORRISTOWN     CLOUDY    30  28  93 CALM      29.87F
SOMERVILLE     CLOUDY    30  26  85 NW3       29.86F
SUSSEX         CLOUDY    26  23  88 CALM      29.85F FOG
ANDOVER          N/A     27  24  89 CALM      29.85F
TRENTON        CLOUDY    30  25  81 CALM      29.86F
MILLVILLE      FLURRIES  37  26  64 SW3       29.87F
ATLANTIC CITY  CLOUDY    38  29  70 S9        29.87F WCI  31
WRIGHTSTOWN    CLOUDY    35  27  73 SW5       29.84F WCI  31
TOMS RIVER     CLOUDY    36  28  75 SW5       29.87F WCI  32
BELMAR         CLOUDY    36  27  69 S5        29.85F WCI  32
$$

PAZ047>061-062-071-301000-
EASTERN PENNSYLVANIA

CITY           SKY/WX    TMP DP  RH WIND       PRES   REMARKS
PHILADELPHIA   CLOUDY    34  25  69 W6        29.88F WCI  29
ALLENTOWN      CLOUDY    28  24  85 CALM      29.87F
SCRANTON       LGT SNOW  27  23  85 SW5       29.82F FOG     WCI  22
$$

CTZ002-004>006-009-010-012-RIZ004-006-007-MAZ004-011-015-301000-
SOUTHERN NEW ENGLAND
 IN CT

CITY           SKY/WX    TMP DP  RH WIND       PRES   REMARKS
BRADLEY INTL   LGT SNOW  29  25  85 S5        29.86F FOG     WCI  24
HARTFORD       LGT SNOW  30  29  96 CALM      29.88F FOG
DANBURY        LGT SNOW  31  26  82 SW5       29.87F WCI  26
WTRBRY/OXFORD  CLOUDY    30  25  80 SW5       29.86F WCI  25
BRIDGEPORT     CLOUDY    32  31  96 W3        29.88F FOG
MERIDEN        LGT SNOW  29  26  89 CALM      29.88F FOG
NEW HAVEN      LGT SNOW  33  31  92 CALM      29.88F FOG
CHESTER        LGT SNOW  32  32 100 SW5       29.87F WCI  27
GROTON         CLOUDY    35  33  92 W5        29.89F WCI  31
WILLIMANTIC    LGT SNOW  29  26  89 CALM      29.89F FOG

 IN RI

CITY           SKY/WX    TMP DP  RH WIND       PRES   REMARKS
PROVIDENCE     LGT SNOW  32  30  92 CALM      29.90F FOG
BLOCK ISLAND   CLOUDY    39  34  81 W6        29.88F WCI  35
WESTERLY       CLOUDY    37  34  89 W3        29.89F

 IN MA

CITY           SKY/WX    TMP DP  RH WIND       PRES   REMARKS
BOSTON         CLOUDY    30  26  85 SE9       29.92F WCI  22
WORCESTER      LGT SNOW  25  25 100 S7        29.84F FOG     WCI  17
WESTFIELD      LGT SNOW  28  24  85 SW5       29.86F FOG     WCI  23
PROVINCETOWN   CLOUDY    34  28  80 SE9       29.94F WCI  26
NANTUCKET      CLOUDY    37  30  75 SE15      29.93F WCI  28
$$

ANZ330-335-338-340-345-350-353-355-301000-
COASTAL MARINE OBSERVATIONS


STATION/POSITION TIME  SKY/WX   TEMP    WIND        PRES    VSBY  WAVE
                                AIR SEA DIR/SP/G                  HT/PER
                 (UTC)          (F)     (DEG/KT/KT) (MB)    (MI)  (FT/S)
NY HARB ENTRANCE 0900            39 39  230/ 16/ 19 1011.3          3/ 5
4S FIRE IS       0900               37                N/A           3/ 5
20S FIRE ISLAND  0800               42              1013.4          4/ 5
23SW MTP         0900                                 N/A           3/ 5
HUDSON CANYON    NOT AVBL
EXECUTION ROCKS  0900            32 33  170/  4/  6   N/A
WESTERN LI SOUND 0900            33     250/  2/  4   N/A           0
CENTRAL LI SOUND 0800            35 35  250/  4/  4   N/A           0
EASTERN LI SOUND NOT AVBL
ROBBINS REEF     0900            35     190/  9/ 11 1010.4
$$


>>>>>>>>>>>>>>>>>>>>>>>>>>>> KEY <<<<<<<<<<<<<<<<<<<<<<<<<<<
>                                                          <
>     SKY/WX - SKY CONDITION/PRESENT WEATHER               <
>     TMP    - TEMPERATURE IN FAHRENHEIT                   <
>     DP     - DEWPOINT IN FAHRENHEIT                      <
>     RH     - RELATIVE HUMIDITY IN PERCENT                <
>     WIND   - DIRECTION AND SPEED IN MPH                  <
>     PRES   - MEAN SEA LEVEL PRESSURE IN INCHES OF HG     <
>     WCI    - WIND CHILL INDEX                            <
>     VSB    - VISIBILITY IN MILES                         <
>     HX     - HEAT INDEX                                  <
>     TC     - TEMPERATURE IN CELSIUS                      <
>     VRB    - VARIABLE WIND DIRECTION                     <
>                                                          <
>>>>>>>>>>>>>>>>>>>>>>>>>>>> KEY <<<<<<<<<<<<<<<<<<<<<<<<<<<




USA.gov is the U.S. government's official web portal to all federal, state and local government web resources and services.